Holdrege, NE

6:57 PM CDT on June 22, 2017 (GMT -0500)
Brewster

Weather History for KHDE - December, 2013

Change the Weather History Date:

Tuesday, December 24, 2013

  Actual Average Record
Temperature  
Mean Temperature 24 °F -  
Max Temperature 37 °F 35 °F 68 °F (1964)
Min Temperature 11 °F 12 °F -18 °F (1983)
Degree Days  
Heating Degree Days 41    
Moisture  
Dew Point 20 °F    
Average Humidity 85    
Maximum Humidity 91    
Minimum Humidity 75    
Precipitation  
Precipitation 0.00 in - - ()
Sea Level Pressure  
Sea Level Pressure 30.12 in    
Wind  
Wind Speed 14 mph (SW)    
Max Wind Speed 21 mph    
Max Gust Speed 29 mph    
Visibility 7 miles    
Events      
Averages and records for this station are not official NWS values.
T = Trace of Precipitation, MM = Missing Value Source: NWS Daily Summary

Daily Weather History Graph

Daily Weather History Graph

Search for Another Location

Airport or City:

Trip Planner

Search our weather history database for the weather conditions in past years. The results will help you decide how hot, cold, wet, or windy it might be!

Date:

Astronomy

Dec. 24, 2013 Rise Set
Actual Time 7:58 AM CST 5:15 PM CST
Civil Twilight 7:27 AM CST 5:46 PM CST
Nautical Twilight 6:53 AM CST 6:20 PM CST
Astronomical Twilight 6:20 AM CST 6:54 PM CST
Moon No Moon Rise 11:52 AM CST (12/24)
Length of Visible Light 10h 18m
Length of Day
9h 17m
Waning Gibbous, 58% of the Moon is Illuminated
Dec 24
Waning Gibbous
Dec 25
Last Quarter
Jan 1
New
Jan 7
First Quarter
Jan 15
Full

Hourly Weather History & Observations

Time (CST) Temp. Windchill Dew Point Humidity Pressure Visibility Wind Dir Wind Speed Gust Speed Precip Events Conditions
12:15 AM 11.3 °F -4.3 °F 6.8 °F 82% 30.28 in 10.0 mi South 13.8 mph - N/A   Clear
12:35 AM 11.3 °F -4.3 °F 6.8 °F 82% 30.28 in 10.0 mi South 13.8 mph - N/A   Clear
12:55 AM 11.3 °F -4.9 °F 7.3 °F 84% 30.27 in 10.0 mi South 15.0 mph - N/A   Clear
1:15 AM 12.0 °F -5.1 °F 8.4 °F 85% 30.24 in 10.0 mi South 17.3 mph - N/A   Clear
1:35 AM 12.2 °F -4.3 °F 8.8 °F 86% 30.24 in 10.0 mi South 16.1 mph - N/A   Clear
1:55 AM 12.6 °F -3.3 °F 9.5 °F 88% 30.23 in 10.0 mi South 15.0 mph 19.6 mph N/A   Clear
2:15 AM 13.1 °F -3.1 °F 10.4 °F 89% 30.23 in 10.0 mi South 16.1 mph - N/A   Mostly Cloudy
2:35 AM 14.7 °F -2.5 °F 12.0 °F 89% 30.21 in 7.0 mi South 19.6 mph - N/A   Overcast
2:55 AM 15.6 °F -0.4 °F 13.1 °F 90% 30.20 in 5.0 mi South 17.3 mph 24.2 mph N/A   Overcast
3:15 AM 16.5 °F 1.3 °F 14.0 °F 90% 30.20 in 5.0 mi South 16.1 mph 21.9 mph N/A   Overcast
3:35 AM 17.4 °F 1.9 °F 14.9 °F 90% 30.19 in 5.0 mi South 17.3 mph 24.2 mph N/A   Overcast
3:55 AM 17.6 °F 2.2 °F 15.3 °F 91% 30.17 in 5.0 mi South 17.3 mph 24.2 mph N/A   Overcast
4:15 AM 17.6 °F 1.3 °F 15.4 °F 91% 30.16 in 5.0 mi South 19.6 mph 25.3 mph N/A   Overcast
4:35 AM 18.0 °F 2.6 °F 15.4 °F 90% 30.16 in 7.0 mi South 17.3 mph 26.5 mph N/A   Overcast
4:55 AM 18.0 °F 2.6 °F 15.3 °F 89% 30.15 in 7.0 mi South 17.3 mph 27.6 mph N/A   Overcast
5:15 AM 17.8 °F 4.0 °F 15.1 °F 89% 30.14 in 7.0 mi South 13.8 mph 21.9 mph N/A   Overcast
5:35 AM 18.0 °F 3.6 °F 15.4 °F 90% 30.13 in 7.0 mi South 15.0 mph 20.7 mph N/A   Overcast
5:55 AM 17.6 °F 2.2 °F 14.9 °F 89% 30.13 in 7.0 mi South 17.3 mph 26.5 mph N/A   Overcast
6:15 AM 17.6 °F 3.7 °F 14.9 °F 89% 30.13 in 5.0 mi South 13.8 mph - N/A   Overcast
6:35 AM 17.2 °F 0.4 °F 14.5 °F 89% 30.13 in 7.0 mi South 20.7 mph 25.3 mph N/A   Overcast
6:55 AM 17.1 °F 1.5 °F 14.7 °F 91% 30.12 in 5.0 mi South 17.3 mph 27.6 mph N/A   Overcast
7:15 AM 17.1 °F 1.0 °F 14.9 °F 91% 30.12 in 5.0 mi South 18.4 mph 27.6 mph N/A   Overcast
7:35 AM 17.2 °F 1.2 °F 14.9 °F 91% 30.11 in 5.0 mi South 18.4 mph 21.9 mph N/A   Overcast
7:55 AM 17.4 °F 2.4 °F 14.9 °F 90% 30.09 in 5.0 mi South 16.1 mph 23.0 mph N/A   Overcast
8:15 AM 17.6 °F 1.7 °F 15.3 °F 91% 30.09 in 5.0 mi South 18.4 mph 25.3 mph N/A   Overcast
8:35 AM 17.6 °F 2.7 °F 15.4 °F 91% 30.10 in 4.0 mi South 16.1 mph - N/A   Overcast
8:55 AM 18.0 °F 2.2 °F 15.6 °F 91% 30.09 in 4.0 mi South 18.4 mph 23.0 mph N/A   Overcast
9:15 AM 18.5 °F 4.9 °F 16.2 °F 91% 30.09 in 4.0 mi South 13.8 mph 20.7 mph N/A   Overcast
9:35 AM 19.2 °F 4.7 °F 16.7 °F 90% 30.08 in 4.0 mi South 16.1 mph - N/A   Overcast
9:55 AM 19.9 °F 5.2 °F 17.4 °F 90% 30.09 in 4.0 mi South 17.3 mph 20.7 mph N/A   Overcast
10:15 AM 20.7 °F 5.3 °F 18.1 °F 90% 30.07 in 4.0 mi South 19.6 mph 25.3 mph N/A   Overcast
10:35 AM 21.7 °F 7.5 °F 19.0 °F 89% 30.06 in 4.0 mi South 17.3 mph 24.2 mph N/A   Overcast
10:55 AM 22.8 °F 8.1 °F 19.9 °F 89% 30.05 in 4.0 mi South 19.6 mph 24.2 mph N/A   Overcast
11:15 AM 23.9 °F 9.5 °F 20.5 °F 87% 30.04 in 4.0 mi South 19.6 mph 28.8 mph N/A   Overcast
11:35 AM 24.8 °F 10.7 °F 21.2 °F 86% 30.02 in 4.0 mi South 19.6 mph 28.8 mph N/A   Overcast
11:55 AM 25.3 °F 12.2 °F 21.4 °F 85% 30.02 in 4.0 mi South 17.3 mph 25.3 mph N/A   Overcast
12:15 PM 26.6 °F 13.1 °F 22.3 °F 84% 30.01 in 4.0 mi South 19.6 mph 24.2 mph N/A   Overcast
12:35 PM 27.7 °F 17.1 °F 23.0 °F 83% 30.01 in 5.0 mi SSW 12.7 mph 21.9 mph N/A   Haze
12:55 PM 28.8 °F 16.2 °F 23.5 °F 81% 29.99 in 5.0 mi SSW 18.4 mph 23.0 mph N/A   Haze
1:15 PM 30.0 °F 19.1 °F 23.7 °F 77% 29.99 in 5.0 mi SSW 15.0 mph 19.6 mph N/A   Haze
1:35 PM 30.4 °F 19.1 °F 23.9 °F 77% 29.98 in 7.0 mi SSW 16.1 mph - N/A   Clear
1:55 PM 30.9 °F 19.8 °F 24.3 °F 76% 29.98 in 5.0 mi SSW 16.1 mph 19.6 mph N/A   Haze
2:15 PM 31.1 °F 21.4 °F 24.8 °F 77% 29.99 in 5.0 mi SW 12.7 mph - N/A   Haze
2:35 PM 31.8 °F 23.3 °F 25.0 °F 76% 30.00 in 5.0 mi WSW 10.4 mph - N/A   Haze
2:55 PM 32.0 °F 24.2 °F 25.2 °F 76% 30.00 in 5.0 mi West 9.2 mph - N/A   Haze
3:15 PM 31.8 °F 23.9 °F 24.6 °F 75% 30.01 in 5.0 mi West 9.2 mph - N/A   Haze
3:35 PM 31.6 °F 26.0 °F 24.8 °F 76% 30.02 in 7.0 mi West 5.8 mph - N/A   Clear
3:55 PM 31.5 °F 28.1 °F 25.2 °F 78% 30.03 in 7.0 mi WNW 3.5 mph - N/A   Clear
4:15 PM 32.0 °F 28.7 °F 25.7 °F 78% 30.04 in 7.0 mi West 3.5 mph - N/A   Clear
4:35 PM 32.0 °F - 25.5 °F 77% 30.04 in 7.0 mi Calm Calm - N/A   Scattered Clouds
4:55 PM 30.9 °F 26.2 °F 25.7 °F 81% 30.05 in 5.0 mi SW 4.6 mph - N/A   Haze
5:15 PM 29.8 °F 24.9 °F 25.2 °F 83% 30.06 in 5.0 mi WNW 4.6 mph - N/A   Haze
5:35 PM 29.3 °F 24.3 °F 24.8 °F 83% 30.07 in 7.0 mi West 4.6 mph - N/A   Scattered Clouds
5:55 PM 29.1 °F 24.1 °F 25.2 °F 85% 30.09 in 7.0 mi West 4.6 mph - N/A   Clear
6:15 PM 31.1 °F 25.4 °F 26.4 °F 83% 30.10 in 10.0 mi West 5.8 mph - N/A   Scattered Clouds
6:35 PM 32.0 °F 26.4 °F 27.1 °F 82% 30.10 in 10.0 mi WNW 5.8 mph - N/A   Clear
6:55 PM 31.5 °F 24.2 °F 27.7 °F 86% 30.12 in 10.0 mi NNW 8.1 mph - N/A   Scattered Clouds
7:15 PM 34.3 °F 25.9 °F 31.1 °F 88% 30.14 in 10.0 mi NNW 11.5 mph 17.3 mph N/A   Scattered Clouds
7:35 PM 37.0 °F 28.5 °F 32.0 °F 82% 30.14 in 10.0 mi North 13.8 mph 18.4 mph N/A   Scattered Clouds
7:55 PM 37.2 °F 28.3 °F 31.5 °F 80% 30.16 in 10.0 mi North 15.0 mph 23.0 mph N/A   Mostly Cloudy
8:15 PM 36.7 °F 27.6 °F 30.7 °F 79% 30.18 in 10.0 mi NNW 15.0 mph 21.9 mph N/A   Scattered Clouds
8:35 PM 36.1 °F 26.2 °F 30.2 °F 79% 30.20 in 10.0 mi North 17.3 mph 21.9 mph N/A   Scattered Clouds
8:55 PM 35.4 °F 26.0 °F 29.3 °F 78% 30.19 in 10.0 mi NNW 15.0 mph 19.6 mph N/A   Clear
9:15 PM 34.3 °F 25.5 °F 28.4 °F 79% 30.20 in 10.0 mi North 12.7 mph - N/A   Clear
9:35 PM 33.3 °F 24.1 °F 28.0 °F 81% 30.20 in 10.0 mi North 12.7 mph - N/A   Clear
9:55 PM 32.7 °F 24.5 °F 27.5 °F 81% 30.20 in 10.0 mi North 10.4 mph - N/A   Clear
10:15 PM 30.9 °F 24.3 °F 26.4 °F 83% 30.22 in 10.0 mi North 6.9 mph - N/A   Clear
10:35 PM 29.3 °F 25.6 °F 25.7 °F 86% 30.22 in 10.0 mi NW 3.5 mph - N/A   Clear
10:55 PM 26.6 °F 21.2 °F 23.7 °F 89% 30.23 in 10.0 mi WNW 4.6 mph - N/A   Clear
11:15 PM 26.6 °F 18.2 °F 24.3 °F 91% 30.23 in 10.0 mi NW 8.1 mph - N/A   Clear
11:35 PM 25.5 °F 19.9 °F 23.0 °F 90% 30.23 in 10.0 mi WNW 4.6 mph - N/A   Clear
11:55 PM 24.4 °F 16.5 °F 21.6 °F 89% 30.24 in 10.0 mi WNW 6.9 mph - N/A   Clear